DELTA 1 DEB, 10838

Orbit data source: Space-Track

DELTA 1 DEB, 10838 is space debris in SSO originally from a launch on Thu, 29 Jul 1976 UTC launched from the Air Force Western Test Range (AFWTR). Debris objects in space refer to the collection of defunct objects orbiting the Earth. Examples of debris include non-operational satellites, rocket bodies, and fragments generated from explosions, collisions, or faulty payload assembly.

Loading next visibility...
Identifier
10838, 1976-077CJ
Orbit
SSO
Country
Flag of USUS
Related business
Manufacturer
Unknown
Mission
Spacecraft
Bus & Motor
Unknown
Mass
Unknown
Launch date (UTC)
1976-07-29 (50 years ago)
Launch vehicle
Unknown
Launch site
Air Force Western Test Range (AFWTR)
Object type
Payload
Rocket body
Debris
Shape & HBR
Unknown shape, 0.2 m
Radar Cross Section
Medium (>0.1 m² and <1 m²)

Expand to show TLE details & history
Last TLE update: 23 hours ago

TLE from 23 hours ago
0 DELTA 1 DEB
1 10838U 76077CJ  26255.53892381 -.00000028  00000-0  10319-3 0  9994
2 10838 101.5803 263.1133 0040220 355.5884 156.1456 12.40887242269918
Epoch: 2026-09-12T12:56Z
TLE epoch observation values (Epoch: 2026-09-12T12:56:03.017Z)
Latitude
27.49869°
Longitude
-96.35259°
Altitude
1,534.931 km
Speed
7.088 km/s
True Right ascension
05h 56m 49s
True Declination
27° 22' 19"
Sunlit
Object was in daylight at epoch
Visualization orbit readout
Latitude
Unknown
Longitude
Unknown
Altitude
Unknown
Speed
Unknown
Apparent Right ascension
Unknown
Apparent Declination
Unknown
Sunlit
N/A
Visualization observer readout
Local Sidereal Time
04:39:29
Azimuth
Unknown
Elevation
Unknown
Doppler factor
Unknown
Orbital elements
Apogee altitude
1,532.081 km
Perigee altitude
1,468.706 km
Semi-major axis
7,878.53 km
Eccentricity
0.00402
Inclination
101.5803°
RAAN
263.1133°
Arg. of periapsis
355.5884°
True anomaly
156.33114°
Mean anomaly
156.1456°
Eccentric anomaly
156.23845°
Mean motion
3.10367 °/min
Orbital period
115.99 mins
BSTAR
0.00010319
Loading maneuver chart data...
Computing Atmospheric mass density...
Loading historical data...
Loading historical data...
Loading historical data...
Loading historical data...
Loading historical data...
Loading historical data...
Loading historical data...

Documentation

Showing up to 5 results
|